Location: El Limón
(10.3059°N, 67.6321°W)
Time: 06:31:07
(UTC+00:00)

Nadezhda 2 Rocket - Visible Passes

Search period start: 16 July 2024 00:00
Search period end: 26 July 2024 00:00
Orbit: 946 x 1011 km, 83.0° (Epoch: 15 July)

Date Brightness Start Highest point End Pass type
(mag) Time Alt. Az. Time Alt. Az. Time Alt. Az.
16 Jul 7.6 09:24:15 10° ENE 09:26:33 12° E 09:28:49 10° ESE visible
17 Jul 6.7 09:47:50 10° NNE 09:53:00 29° E 09:58:12 10° SE visible
18 Jul 6.9 23:26:15 10° SW 23:31:28 27° W 23:36:38 10° NNW visible
19 Jul 7.8 08:59:42 10° ENE 09:00:22 10° E 09:01:04 10° E visible
19 Jul 7.7 23:56:14 10° W 23:57:56 11° W 23:59:38 10° WNW visible
20 Jul 6.8 09:21:56 10° NNE 09:26:51 25° E 09:31:48 10° SE visible
21 Jul 5.3 09:47:16 10° N 09:53:14 57° E 09:59:17 10° SSE visible
22 Jul 7.6 23:29:02 10° WSW 23:31:48 13° W 23:34:33 10° WNW visible
23 Jul 6.9 08:56:05 10° NE 09:00:42 22° E 09:05:20 10° SE visible
24 Jul 5.5 09:21:12 10° NNE 09:27:06 50° E 09:33:05 10° SSE visible
25 Jul 4.5 09:47:22 10° N 09:53:27 74° W 09:59:38 10° S visible
